Weather History for LEPA - December, 2012

Change the Weather History Date:

Wednesday, December 5, 2012

  Actual Average Record
Temperature  
Mean Temperature 54 °F -  
Max Temperature 59 °F 59 °F 68 °F (1996)
Min Temperature 50 °F 41 °F 33 °F (2013)
Degree Days  
Heating Degree Days 10    
Growing Degree Days 4 (Base 50)    
Moisture  
Dew Point 38 °F    
Average Humidity 49    
Maximum Humidity 62    
Minimum Humidity 23    
Precipitation  
Precipitation 0.00 in 0.06 in - ()
Sea Level Pressure  
Sea Level Pressure 29.97 in    
Wind  
Wind Speed 11 mph ()    
Max Wind Speed 24 mph    
Max Gust Speed 40 mph    
Visibility 6.9 miles    
Events Rain    
Averages and records for this station are not official NWS values.
T = Trace of Precipitation, MM = Missing Value Source: Averaged Metar Reports

Daily Weather History Graph

Daily Weather History Graph

Search for Another Location

Airport or City:

Trip Planner

Search our weather history database for the weather conditions in past years. The results will help you decide how hot, cold, wet, or windy it might be!

Date:

Astronomy

Dec. 05, 2012 Rise Set
Actual Time 7:54 AM CET 5:24 PM CET
Civil Twilight 7:24 AM CET 5:54 PM CET
Nautical Twilight 6:51 AM CET 6:28 PM CET
Astronomical Twilight 6:18 AM CET 7:01 PM CET
Moon 11:57 PM CET (12/5) 12:11 PM CET (12/5)
Length of Visible Light 10h 30m
Length of Day
9h 30m
Waning Gibbous, 62% of the Moon is Illuminated
Dec 5
Waning Gibbous
Dec 6
Last Quarter
Dec 13
New
Dec 20
First Quarter
Dec 28
Full

Hourly Weather History & Observations

Time (CET) Temp. Dew Point Humidity Pressure Visibility Wind Dir Wind Speed Gust Speed Precip Events Conditions
12:00 AM 55.4 °F 37.4 °F 51% 30.01 in 6.2 mi NNW 10.4 mph - N/A   Partly Cloudy
12:30 AM 55.4 °F 37.4 °F 51% 30.01 in 6.2 mi WNW 6.9 mph - N/A   Partly Cloudy
1:00 AM 56 °F 29 °F 23% 30.01 in 12 mi NW 17.3 mph - -   Scattered Clouds
1:00 AM 57.2 °F 33.8 °F 41% 30.01 in 6.2 mi NW 18.4 mph 32.2 mph N/A   Partly Cloudy
1:30 AM 55.4 °F 35.6 °F 47% 30.01 in 6.2 mi WNW 10.4 mph - N/A   Partly Cloudy
2:00 AM 53.6 °F 35.6 °F 51% 29.98 in 6.2 mi NW 9.2 mph - N/A   Partly Cloudy
2:30 AM 51.8 °F 35.6 °F 54% 29.98 in 6.2 mi NW 2.3 mph - N/A   Partly Cloudy
3:00 AM 51.8 °F 39.2 °F 62% 29.98 in 6.2 mi Calm Calm - N/A   Partly Cloudy
3:30 AM 53.6 °F 39.2 °F 58% 29.95 in - West 5.8 mph - N/A   Clear
4:00 AM 53.6 °F 41.0 °F 62% 29.95 in - WNW 5.8 mph - N/A   Clear
4:30 AM 53.6 °F 39.2 °F 58% 29.95 in - WNW 6.9 mph - N/A   Clear
5:00 AM 53.6 °F 39.2 °F 58% 29.92 in - West 6.9 mph 19.6 mph N/A   Clear
5:30 AM 53.6 °F 37.4 °F 54% 29.92 in 6.2 mi West 9.2 mph - N/A   Partly Cloudy
6:00 AM 55.4 °F 37.4 °F 51% 29.92 in 6.2 mi West 9.2 mph - N/A   Partly Cloudy
6:30 AM 55.4 °F 35.6 °F 47% 29.92 in 6.2 mi WNW 11.5 mph - N/A   Partly Cloudy
7:00 AM 53 °F 33 °F 34% 29.94 in 16 mi WNW 9.2 mph - -   Scattered Clouds
7:00 AM 55.4 °F 37.4 °F 51% 29.92 in 6.2 mi WNW 12.7 mph - N/A   Partly Cloudy
7:30 AM 55.4 °F 37.4 °F 51% 29.95 in 6.2 mi WNW 13.8 mph - N/A   Partly Cloudy
8:00 AM 55.4 °F 37.4 °F 51% 29.95 in 6.2 mi WNW 11.5 mph - N/A   Partly Cloudy
8:30 AM 57.2 °F 35.6 °F 44% 29.95 in 6.2 mi WNW 15.0 mph - N/A   Partly Cloudy
9:00 AM 57.2 °F 37.4 °F 48% 29.95 in 6.2 mi NW 13.8 mph - N/A   Partly Cloudy
9:30 AM 57.2 °F 35.6 °F 44% 29.95 in 6.2 mi NW 15.0 mph 26.5 mph N/A   Partly Cloudy
10:00 AM 59.0 °F 37.4 °F 45% 29.95 in 6.2 mi NW 17.3 mph - N/A   Partly Cloudy
10:30 AM 59.0 °F 39.2 °F 48% 29.95 in 6.2 mi WNW 19.6 mph - N/A   Partly Cloudy
11:00 AM 59.0 °F 39.2 °F 48% 29.98 in 6.2 mi NW 20.7 mph - N/A   Partly Cloudy
11:30 AM 59.0 °F 37.4 °F 45% 29.98 in 6.2 mi NW 19.6 mph 33.4 mph N/A   Partly Cloudy
12:00 PM 59.0 °F 35.6 °F 42% 29.98 in 6.2 mi NW 24.2 mph - N/A   Partly Cloudy
12:30 PM 59.0 °F 39.2 °F 48% 29.95 in 6.2 mi NW 19.6 mph - N/A   Partly Cloudy
1:00 PM 59 °F 33 °F 26% 29.96 in 19 mi WNW 13.8 mph - -   Scattered Clouds
1:00 PM 60.8 °F 39.2 °F 45% 29.95 in 6.2 mi NW 17.3 mph - N/A   Partly Cloudy
1:30 PM 59.0 °F 37.4 °F 45% 29.95 in 6.2 mi WNW 19.6 mph - N/A   Scattered Clouds
2:00 PM 59.0 °F 37.4 °F 45% 29.95 in 6.2 mi NW 24.2 mph 40.3 mph N/A   Scattered Clouds
4:00 PM 57.2 °F 37.4 °F 48% 29.95 in 6.2 mi NW 23.0 mph - N/A   Scattered Clouds
4:30 PM 57.2 °F 37.4 °F 48% 29.95 in 6.2 mi NW 17.3 mph - N/A   Scattered Clouds
5:00 PM 57.2 °F 39.2 °F 51% 29.95 in 6.2 mi NNW 18.4 mph - N/A   Scattered Clouds
5:30 PM 57.2 °F 39.2 °F 51% 29.95 in 6.2 mi NNW 20.7 mph - N/A   Scattered Clouds
6:00 PM 57.2 °F 37.4 °F 48% 29.98 in 6.2 mi NNW 21.9 mph 33.4 mph N/A Rain Light Rain
6:30 PM 55.4 °F 39.2 °F 54% 29.98 in 6.2 mi NNW 18.4 mph 29.9 mph N/A   Scattered Clouds
7:00 PM 55 °F 35 °F 36% 29.99 in 9 mi NW 20.7 mph - -   Partly Cloudy
7:00 PM 57.2 °F 39.2 °F 51% 29.98 in 6.2 mi NNW 11.5 mph 24.2 mph N/A   Scattered Clouds
7:30 PM 55.4 °F 39.2 °F 54% 30.01 in 6.2 mi NNW 9.2 mph - N/A   Scattered Clouds
8:00 PM 55.4 °F 39.2 °F 54% 30.01 in 6.2 mi WNW 3.5 mph - N/A   Scattered Clouds
8:30 PM 55.4 °F 39.2 °F 54% 30.01 in 6.2 mi NW 10.4 mph - N/A   Partly Cloudy
9:00 PM 55.4 °F 39.2 °F 54% 30.04 in 6.2 mi West 9.2 mph - N/A   Partly Cloudy
9:30 PM 55.4 °F 39.2 °F 54% 30.01 in 6.2 mi WNW 10.4 mph - N/A   Partly Cloudy
10:00 PM 55.4 °F 39.2 °F 54% 30.04 in 6.2 mi WNW 6.9 mph - N/A   Partly Cloudy
10:30 PM 55.4 °F 39.2 °F 54% 30.01 in 6.2 mi West 9.2 mph - N/A   Partly Cloudy
11:00 PM 55.4 °F 39.2 °F 54% 30.04 in 6.2 mi WNW 18.4 mph - N/A   Partly Cloudy
11:30 PM 55.4 °F 39.2 °F 54% 30.04 in 6.2 mi NW 13.8 mph - N/A   Partly Cloudy